STARLINK-31977 (59892 NORAD) Tracking and Keplerian Element Data

This shows tracking and keplerian element data for the satellite.

Feedback or suggestion? Click here.




ElementValue
Catalog59892
NameSTARLINK-31977
Epoch Orbit291
Epoch Day160.16667824
Epoch Year2024
RAAN174.3704
Inclination43.0036
Eccentricity0.0001232
Argument of Perigee274.5109
Mean Anonmoly315.0887
Mean Motion15.79973392
Decay Rate-0.0100531
L11 59892U 24100H 24160.16667824 -.01005310 00000+0 -58966-2 0 9990
L22 59892 43.0036 174.3704 0001232 274.5109 315.0887 15.79973392 2912



Live tracking and technical data element details for STARLINK-31977 (NORAD 59892). STARLINK-31977 can be tracked NOW for your location showing map with azimuth and elevation plus other details from your city location.







IsCatalogInMostPopularTable: catalog: 59892, numindb: 6
Update: records affected: 1



GetName: 59892 STARLINK-31977

Hit Count: updated at: Tue, 16 Jul 2024 03:17:34 GMT